Location: Arroyo de San Miguel
(40.9167°N, 4.6667°W)
Time: 02:08:47
(UTC+00:00)

Lacrosse 5 rocket - Pass Details

Date: 19 May 2025
Orbit: 419 x 515 km, 57.0° (Epoch: 24 June)

Event Time Altitude Azimuth Distance (km) Brightness Sun altitude
Rises 21:24:01 0° 320° (NW) 2,479 6.5 -17.3°
Reaches altitude 10° 21:26:17 10° 329° (NNW) 1,584 4.9 -17.6°
Maximum altitude 21:29:37 39° 39° (NE) 681 1.8 -18.0°
Enters shadow 21:30:29 32° 75° (ENE) 769 1.8 -18.1°
